SNUGLITE-II

Satellite information

Favourite Embed

Satellite Type and Status

PAYLOADIN ORBIT

Key statistics

Satellite SNUGLITE-II at a glance.

Uptime

1112

Days in orbit

Revolutions

≈ 14.6

Per day

Orbit

SSO

Sun Synchronous Orbit

Inclination

98.2

Latest

Satellite identification and parameters

Extended collection of information and parameters for SNUGLITE-II.

Object identification

Identified? True

Debris? False

Object name: SNUGLITE-II

International designator: 2022-065F

Object number (NORAD): 52899

Object ID (CCSDS): 52899

Country: SOUTH KOREA (SKOR)

Current information (Y/N): Y

RCS size: SMALL

Orbital parameters

Period: 98.41 minutes

Inclination: 98.1718 deg

SMA: 7060.794 km

Apoapsis: 688.502 km

Periapsis: 676.815 km

RAAN: 329.082 deg

Eccentricy: 0.0008276

Argument of periapsis: 38.1398 deg

Mean anomaly: 322.0389 deg

Mean motion: 14.63263318 rev/day

Mean motion (dot): 0.00000824 rev/day2

B* drag term: 0.00016899 1/REarth

Two-line elements (TLE)

Creation date: July 6, 2025, 6:05 p.m.

Reference frame: TEME

Reference center: EARTH

Epoch: July 6, 2025, 8:44 a.m. UTC

TLE line 0: 0 SNUGLITE-II

TLE line 1: 1 52899U 22065F 25187.36431880 .00000824 00000-0 16899-3 0 9994

TLE line 2: 2 52899 98.1718 329.0820 0008276 38.1398 322.0389 14.63263318160403

Live tracking on map

Real-time ground track for satellite SNUGLITE-II.

In-orbit conjunctions

There are no conjunctions computed for SNUGLITE-II, at the moment. Check back to stay up to date, as we update our databases every day.

Go to all conjunctions

Associated space launch

Second flight of the KSLV-II "Nuri" launch vehicle, carrying a dummy satellite Payload of 1500 kg to sun-synchronous orbit. The mission will in addition launch the performance verification satellite (PVSAT) and four Cubesats: - CubeSat (6U) STEP Cube Lab-II - CubeSat (3U) SNUGLITE-II - CubeSat (3U) MIMAN - CubeSat (3U) RANDEV

SNUGLITE-II was lifted into orbit during the mission ‘Nuri | Flight Test 2’, on board a Nuri space rocket.

The launch took place on June 21, 2022, 7 a.m. from LC-2.

For more information about the launch, click the button.

Launch to space Nuri | Flight Test 2
Nuri | Flight Test 2

Agency: N/A

Status: Launch Successful

Launch date: June 21, 2022, 7 a.m. UTC

Rocket: Nuri

Launch pad: LC-2

Location: Naro Space Center, South Korea

...

Latest news about this satellite

News about space launch
KARI reaches orbit on second test flight of domestic Nuri rocket

The Korean Aerospace Research Institute (KARI) has conducted its second launch of the Korea Space Launch Vehicle (KSLV)-II rocket, also known as Nuri. This was Nuri’s return to flight after nearly reaching orbit on its previous mission. The rocket lifted ...

News about space launch
South Korean rocket puts satellites in orbit for the first time in second flight

South Korea’s homegrown rocket KSLV-2 successfully put satellites into low Earth orbit for the first time in its second flight June 21.


Newsletter sign-up

Weekly statistics, charts and insights to help you stay on top of the space industry.